This is the latest recevied weather packets stored in our database for station/object HEBOWX. If no packets are shown the sender has not sent any weather packets the latest 10 day(s).
| Time | Temp. | Humidity | Pressure | Rain* | Wind** | Luminosity | Snow |
|---|---|---|---|---|---|---|---|
| 1777595416 | 13.33° C | 44% | 1014.6 hPa | 0 mm | - | - | - |
| 1777595116 | 13.33° C | 47% | 1014.6 hPa | 0 mm | - | - | - |
| 1777594816 | 13.89° C | 45% | 1014.6 hPa | 0 mm | - | - | - |
| 1777594516 | 13.89° C | 46% | 1014.7 hPa | 0 mm | - | - | - |
| 1777594216 | 13.89° C | 45% | 1014.7 hPa | 0 mm | - | - | - |
| 1777593916 | 14.44° C | 45% | 1014.7 hPa | 0 mm | - | - | - |
| 1777593616 | 14.44° C | 44% | 1014.8 hPa | 0 mm | - | - | - |
| 1777593317 | 14.44° C | 43% | 1014.7 hPa | 0 mm | - | - | - |
| 1777593016 | 14.44° C | 42% | 1014.7 hPa | 0 mm | - | - | - |
| 1777592716 | 15° C | 42% | 1014.8 hPa | 0 mm | - | - | - |
| 1777592416 | 15° C | 43% | 1015 hPa | 0 mm | - | - | - |
| 1777592116 | 15° C | 43% | 1014.8 hPa | 0 mm | - | - | - |
| 1777591816 | 15° C | 43% | 1015 hPa | 0 mm | - | - | - |
| 1777591516 | 15° C | 45% | 1015.1 hPa | 0 mm | - | - | - |
| 1777591217 | 15° C | 43% | 1015.1 hPa | 0 mm | - | - | - |
| 1777590916 | 15.56° C | 44% | 1015.1 hPa | 0 mm | - | - | - |
| 1777590617 | 15.56° C | 46% | 1015.3 hPa | 0 mm | - | - | - |
| 1777590316 | 15.56° C | 45% | 1015.2 hPa | 0 mm | - | - | - |
| 1777590016 | 15.56° C | 44% | 1015.3 hPa | 0 mm | - | - | - |
| 1777589716 | 15.56° C | 44% | 1015.6 hPa | 0 mm | - | - | - |
| 1777589416 | 15.56° C | 43% | 1015.4 hPa | 0 mm | - | - | - |
| 1777589116 | 16.11° C | 44% | 1015.5 hPa | 0 mm | - | - | - |
| 1777588816 | 16.11° C | 45% | 1015.5 hPa | 0 mm | - | - | - |
| 1777588516 | 16.11° C | 45% | 1015.5 hPa | 0 mm | - | - | - |
| 1777588216 | 16.11° C | 45% | 1015.5 hPa | 0 mm | - | - | - |
* Rain latest hour (hover to see other rain measurements)
** Current wind speed in m/s (hover to see current wind gust speed)